[[{"header":{"parameterUnit":"m.s-1","parameterCategory":1,"la1":30.2992,"la2":30.254,"lo1":-89.0895,"lo2":-89.0443,"dy":0.0025,"dx":0.0025,"nx":19,"ny":19,"refTime":"2026-03-18T21:00:00:Z","depth":0,"parameterNumber":2,"parameterNumberName":"U-component_of_WINDS"},"data":[0,0,0,0.3982,0.3981,0.3922,0.3922,0.3837,0.3837,0,0,0,0,0,0,0,0,0,0,0,0.3995,0.3995,0.3982,0.3981,0.3922,0.3922,0.3838,0.3837,0,0,0,0,0,0,0,0,0,0,0,0.3996,0.3995,0.3994,0.398,0.3922,0.3922,0.3838,0.3885,0,0,0,0,0,0,0,0,0,0,0.3944,0.3952,0.3995,0.3994,0.398,0.3922,0.3922,0.3888,0.3882,0.3861,0,0.3841,0,0.3838,0.3831,0.383,0,0,0,0.3984,0.3956,0.3945,0.3994,0.3979,0.3922,0.3949,0.3885,0.3878,0.3853,0.384,0.3837,0.3836,0.383,0.3829,0.3698,0.3697,0,0,0.3987,0.3982,0.3949,0.394,0.395,0.3951,0.3947,0.3881,0.3866,0.384,0.3836,0.3835,0.3829,0.3829,0.3699,0.3698,0,0,0,0.3994,0.3984,0.3974,0.3944,0.3934,0.3949,0.3945,0.3869,0.3866,0.3835,0.3834,0.3829,0.3828,0.3699,0.3698,0.3657,0,0,0,0.3996,0.3989,0.3975,0.3972,0.3935,0.3901,0.3934,0.3871,0.3863,0.3834,0.3829,0.3827,0.37,0.3699,0.366,0.3638,0,0,0,0.4001,0.3989,0.3979,0.3972,0.3947,0.3902,0.3895,0.3869,0.3863,0.383,0.3827,0.3701,0.3699,0.3662,0.3642,0.3602,0,0,0,0.4004,0.3943,0.3979,0.3911,0.3947,0.3877,0.3896,0.3844,0.3811,0.3828,0.37,0.3698,0.3663,0.3645,0.3605,0.3567,0.3551,0,0,0.3925,0.3934,0.3894,0.3924,0.3847,0.3887,0.3803,0.3777,0.3777,0.3724,0.3721,0.3659,0.3643,0.3602,0.3463,0.345,0,0,0,0.3867,0.3839,0.3819,0.3788,0.3767,0.3747,0.3735,0.3725,0.368,0.3749,0.3634,0.3624,0.3601,0.3583,0.3572,0.3552,0.369,0.369,0.369,0.3749,0.3754,0.3688,0.3685,0.3655,0.3642,0.3618,0.3602,0.3615,0.3588,0.3572,0.3487,0.3466,0.3458,0.3436,0.3552,0.3552,0.3552,0.3552,0.3634,0.3594,0.3613,0.3557,0.3561,0.3513,0.3498,0.3509,0.3464,0.3499,0.3479,0.3516,0.3443,0.3425,0.3549,0.3549,0.355,0.355,0.355,0.3557,0.3539,0.3528,0.3483,0.3448,0.3447,0.3403,0.3409,0.3414,0.3393,0.3377,0.3377,0.3378,0.3385,0.3385,0.3384,0.3384,0.3384,0.3384,0.3481,0.3471,0.3434,0.3406,0.3387,0.3362,0.3348,0.3328,0.3308,0.3315,0.3315,0.333,0.3436,0.3462,0.3379,0.338,0.3381,0.3381,0.3381,0.3363,0.3391,0.3333,0.3314,0.3281,0.3245,0.3253,0.3212,0.3197,0.3175,0.3194,0.3272,0.3281,0.3289,0.3311,0.3194,0.3194,0.3194,0.3194,0.3298,0.3303,0.3246,0.3214,0.3183,0.3184,0.3118,0.3106,0.3097,0.3088,0.3105,0.3135,0.3143,0.3147,0.3159,0.3179,0.3031,0.3031,0.3031,0.3225,0.3227,0.3171,0.3164,0.3139,0.3116,0.3054,0.3015,0.3012,0.3025,0.308,0.3087,0.3134,0.315,0.3164,0.3182,0.322,0,0]},{"header":{"parameterUnit":"m.s-1","parameterCategory":1,"la1":30.2992,"la2":30.254,"lo1":-89.0895,"lo2":-89.0443,"dy":0.0025,"dx":0.0025,"nx":19,"ny":19,"refTime":"2026-03-18T21:00:00:Z","depth":0,"parameterNumber":3,"parameterNumberName":"V-component_of_WINDS"},"data":[0,0,0,0.8144,0.8145,0.8175,0.8175,0.8196,0.8196,0,0,0,0,0,0,0,0,0,0,0,0.8125,0.8125,0.8144,0.8145,0.8175,0.8175,0.8196,0.8196,0,0,0,0,0,0,0,0,0,0,0,0.8126,0.8125,0.8125,0.8145,0.8175,0.8175,0.8196,0.818,0,0,0,0,0,0,0,0,0,0,0.8153,0.8126,0.8125,0.8125,0.8145,0.8175,0.8175,0.8179,0.8181,0.8175,0,0.8168,0,0.8183,0.8197,0.8197,0,0,0,0.8152,0.8125,0.8142,0.8125,0.8145,0.8175,0.8163,0.818,0.8182,0.8177,0.8169,0.817,0.8183,0.8197,0.8197,0.8141,0.8141,0,0,0.815,0.8125,0.8141,0.8143,0.8137,0.8162,0.8164,0.8181,0.817,0.8169,0.8171,0.8183,0.8197,0.8197,0.8142,0.8141,0,0,0,0.8141,0.8124,0.8141,0.8141,0.8148,0.8163,0.8165,0.817,0.8177,0.8171,0.8183,0.8197,0.8197,0.8143,0.8142,0.8086,0,0,0,0.814,0.8118,0.814,0.8125,0.8147,0.8159,0.8153,0.8176,0.8179,0.8183,0.8197,0.8197,0.8143,0.8142,0.8089,0.8063,0,0,0,0.8127,0.8117,0.8118,0.8123,0.8136,0.816,0.8169,0.8177,0.8186,0.8197,0.8197,0.8144,0.8142,0.8091,0.8067,0.8039,0,0,0,0.8105,0.8069,0.8117,0.808,0.8135,0.8126,0.8169,0.8163,0.8166,0.8197,0.8143,0.8142,0.8092,0.807,0.8041,0.8008,0.7993,0,0,0.8045,0.806,0.8041,0.8085,0.806,0.8123,0.809,0.8117,0.8141,0.814,0.8139,0.8088,0.8067,0.8039,0.792,0.7907,0,0,0,0.8013,0.7999,0.7998,0.7999,0.8018,0.8032,0.8066,0.8076,0.8076,0.8135,0.8072,0.8061,0.8045,0.803,0.802,0.8007,0.8135,0.8135,0.8135,0.789,0.7923,0.7892,0.7928,0.7929,0.7965,0.7968,0.7987,0.8021,0.8005,0.8004,0.7927,0.7909,0.7901,0.7887,0.7992,0.7991,0.7991,0.7991,0.7802,0.7785,0.7831,0.7817,0.7852,0.7841,0.7874,0.7898,0.7891,0.7931,0.7919,0.7957,0.7887,0.7876,0.7987,0.7988,0.7988,0.7989,0.7989,0.7722,0.772,0.7733,0.7737,0.7736,0.7775,0.7767,0.78,0.7831,0.7819,0.782,0.7821,0.7824,0.7818,0.7818,0.7817,0.7817,0.7817,0.7817,0.7633,0.765,0.7638,0.7655,0.766,0.767,0.7705,0.771,0.7724,0.7749,0.7749,0.7782,0.7875,0.7895,0.7813,0.7813,0.7814,0.7814,0.7815,0.7526,0.7556,0.7538,0.7543,0.7565,0.7561,0.7604,0.7611,0.7621,0.7615,0.7652,0.7716,0.7734,0.7742,0.7759,0.7646,0.7646,0.7646,0.7646,0.7457,0.747,0.7459,0.7463,0.7471,0.7508,0.7486,0.7513,0.7545,0.7553,0.7575,0.7602,0.7609,0.7622,0.7634,0.765,0.7512,0.7512,0.7511,0.7392,0.7407,0.7381,0.7414,0.7434,0.745,0.7429,0.7431,0.7475,0.7507,0.7559,0.7564,0.7608,0.7621,0.7651,0.7667,0.7698,0,0]}]]